カタログに戻る

SITRO-AIS-26

運用中通信PO
NORAD 59067·PAYLOAD·🇷🇺 Russia
この衛星名は、まだ公式ソースで確認されていません。

打ち上げ Feb 29, 2024 から Vostochny Cosmodrome

Loading…

次のパス (今後24時間)

TLE

最新Source: Space-Track

元期: Sep 14, 2026, 21:18 UTC

1 59067U 24039S   26257.88756024  .00002535  00000-0  19718-3 0  9991
2 59067  95.3816 296.5859 0144226  15.7541 344.8101 14.93817390138106

AllMySatでSITRO-AIS-26をリアルタイム追跡

Download on the App Store